Regional Weather Roundup
Issued by NWS Kansas City/Pleasant Hill, MO

Home | Current Version | Previous Version | Graphics & Text | Print | Product List | Glossary Off
Versions: 1 2 3 4 5 6 7 8 9 10 11 12 13 14 15 16 17 18 19 20 21 22 23 24 25 26 27 28 29 30 31 32 33 34 35 36 37 38 39 40 41 42 43 44 45 46 47 48 49 50

000
ASUS43 KEAX 210410
RWREAX

WEATHER ROUNDUP FOR EASTERN KANSAS AND NORTHWEST MISSOURI
NATIONAL WEATHER SERVICE KANSAS CITY/PLEASANT HILL MO
1100 PM CDT MON APR 20 2015

KSZ040-057-103>105-MOZ028-029-037-043-210500-
...KANSAS CITY METROPOLITAN AREA...

CITY           SKY/WX    TMP DP  RH WIND       PRES   REMARKS
K.C. INTL      PTCLDY    45  30  55 SW8       29.85S
K.C. DOWNTOWN  PTCLDY    52  28  39 W6        29.85S
LEES SUMMIT    CLEAR     47  30  51 SW7       29.86S
OLATHE - IXD   CLEAR     45  31  58 SW6       29.88S
OLATHE - OJC   CLEAR     48  29  47 SW6       29.86S
LAWRENCE       CLEAR     43  32  65 W5        29.87S

$$

MOZ001>008-011>017-020>025-030>033-038>040-044>046-053-054-210500-
...NORTHERN AND CENTRAL MISSOURI...

CITY           SKY/WX    TMP DP  RH WIND       PRES   REMARKS
ST. JOSEPH     PTCLDY    47  30  51 W10       29.84S
MOSBY          PTCLDY    50  30  46 SW5       29.84F
WARRENSBURG    PTCLDY    45  32  61 SW8       29.86F
WHITEMAN AFB   CLEAR     47  30  51 SW8       29.85F
CLINTON        FAIR      48  34  57 SW7       29.89S
SEDALIA        CLEAR     48  29  47 SW10      29.87S
WARSAW         NOT AVBL
MARSHALL       CLEAR     48  34  57 SW6       29.85F
CHILLICOTHE      N/A     47  28  47 SW5       29.82S
MOBERLY        CLEAR     48  25  40 SW10      29.82S
KIRKSVILLE     CLEAR     45  26  47 SW7       29.78S

$$

MOZ041-047>049-056>058-063>065-088>090-097-210500-
...EASTERN AND SOUTHERN MISSOURI...

CITY           SKY/WX    TMP DP  RH WIND       PRES   REMARKS
ST. LOUIS INTL CLEAR     49  31  49 SW8       29.84F
SPIRIT OF STL  CLEAR     45  31  58 SW5       29.84S
COLUMBIA       CLEAR     44  29  55 SW10      29.84F
JEFFERSON CITY CLEAR     50  27  40 SW8       29.86S
MEXICO         CLEAR     46  34  61 SW9       29.82S
HANNIBAL       CLEAR     48  25  40 SW8       29.78F
ROLLA          CLEAR     42  27  55 SW9       29.86S
LEBANON        CLEAR     46  27  46 SW5       29.91S
OSAGE BEACH    CLEAR     48  23  37 SW5       29.88F
SPRINGFIELD    CLEAR     42  32  67 SW8       29.92S
BRANSON        CLEAR     46  32  57 CALM      29.96S
NEVADA         CLEAR     45  34  65 SW7       29.92F
JOPLIN         CLEAR     45  36  70 S6        29.94S
WEST PLAINS    CLEAR     45  29  53 SW6       29.94S

$$

IAZ060-094-KSZ022-034>040-054-083-096-NEZ052-066-093-210500-
...KANSAS...SOUTHEAST NEBRASKA AND IOWA...

CITY           SKY/WX    TMP DP  RH WIND       PRES   REMARKS
TOPEKA         CLEAR     45  32  60 CALM      29.87S
MANHATTAN      CLEAR     40  33  76 CALM      29.88S
EMPORIA        CLEAR     45  36  70 SW9       29.90R
CHANUTE        CLEAR     47  38  71 SW8       29.91F
WICHITA        PTCLDY    48  36  63 SW6       29.92S
OMAHA          CLEAR     47  20  34 W8        29.79S
LINCOLN        CLEAR     47  26  44 W7        29.84S
FALLS CITY     PTCLDY    45  28  51 SW9       29.83R
LAMONI         PTCLDY    44  26  49 W12       29.77S
DES MOINES     CLEAR     46  19  34 NW9G21    29.73R

$$



USA.gov is the U.S. government's official web portal to all federal, state and local government web resources and services.